User: anonymous   Login
Location: Hickory_CSC
(35.7330°N, 81.3330°W)
Time: 23:29:19
(UTC-05:00)
Language:

Cosmos 1356 Rocket - Orbit

View from above orbital plane
View from above orbital plane
View from above satellite
View from above satellite

Ground track
Ground track

The orbit data is extracted from the following two-line orbital elements,

1 13154U 82039B   17055.15419965  .00000401  00000-0  31487-4 0  9996
2 13154  81.1861 358.0631 0039375 300.6877  59.0464 14.98253741886818
Epoch (UTC): 24 February 2017 03:42:02
Eccentricity: 0.0039375
inclination: 81.1861°
perigee height: 545 km
apogee height: 599 km
right ascension of ascending node: 358.0631°
argument of perigee: 300.6877°
revolutions per day: 14.98253741
mean anomaly at epoch: 59.0464°
orbit number at epoch: 88681

The dashed part of the orbit path shows where the satellite is in the earth's shadow,  

DLR